Location: La Hardoye
(49.6787°N, 4.2249°E)
Time: 08:20:58
(UTC+00:00)

Daily predictions for brighter satellites

Satellite Brightness Start Highest point End
(mag) Time Altitude Azimuth Time Altitude Azimuth Time Altitude Azimuth
Cosmos 2154 Rocket 4.4 20:06:12 10° SSW 20:12:32 74° W 20:18:55 10° N
Cosmos 1437 Rocket 2.9 20:11:13 10° S 20:14:40 44° E 20:18:11 10° NNE
ISS -3.8 20:13:11 10° WNW 20:16:30 74° SSW 20:19:48 10° ESE
BREEZE-M DEB (TANK) 1.6 20:17:58 10° WNW 20:22:03 89° ENE 20:24:08 10° ESE
COSMOS 2406 3.9 20:17:16 10° NNW 20:22:43 44° NE 20:28:07 10° SE
IRS-1A Rocket 4.4 20:23:23 10° SSE 20:29:08 83° ENE 20:35:02 10° NNW
Cosmos 1606 3.5 20:27:18 10° NNW 20:30:43 46° W 20:34:05 10° S
Cosmos 2298 Rocket 4.1 20:26:27 10° SSW 20:31:47 87° WNW 20:37:08 10° NNE
MetOp-B 4.3 20:27:34 10° S 20:32:55 76° WSW 20:38:19 10° NNW
USA 307 2.6 20:34:16 10° WNW 20:38:12 81° NNE 20:41:51 11° ESE
CZ-4C R/B 3.3 20:34:53 10° NW 20:41:33 58° NE 20:49:47 10° ESE
Cosmos 1833 Rocket 3.8 20:36:42 10° NW 20:41:56 40° WSW 20:47:07 10° S
Cosmos 1140 Rocket 4.3 20:38:39 10° NNW 20:43:26 38° ENE 20:47:51 12° ESE
NOSS 8 (F) 4.4 20:40:34 10° NW 20:43:34 68° NE 20:46:43 13° SE
Cosmos 1536 Rocket 3.6 20:39:22 10° S 20:43:36 61° E 20:47:52 10° NNE
Cosmos 2366 rocket 4.0 20:37:34 10° S 20:43:39 67° E 20:49:45 10° NNE
ULPM Upper Stage 2.8 20:40:31 10° NW 20:44:53 75° SW 20:48:42 13° SE
Cosmos 1269 Rocket 4.1 20:39:55 10° NNW 20:45:15 75° ENE 20:50:09 12° SSE
NOSS 3-1 (A) 3.3 20:42:53 10° SSW 20:47:35 48° ESE 20:53:11 10° NE
SL-8 Rocket 4.0 20:42:04 10° S 20:48:21 82° E 20:54:43 10° N
ATLAS 5 CENTAUR R/B 4.4 20:49:11 10° NW 20:51:11 14° N 20:53:21 10° NNE
ERS-1 Rocket 3.2 20:50:12 10° S 20:55:11 71° WSW 21:00:13 10° NNW
Cosmos 2084 Rocket 4.4 20:59:12 10° WNW 21:02:47 33° WSW 21:05:50 13° S
Cosmos 2058 Rocket 4.3 21:00:13 10° N 21:04:00 28° ENE 21:06:45 15° ESE
Okean O Rocket 4.2 21:02:49 10° SW 21:05:29 16° W 21:08:09 10° NW
Landsat 4 3.6 21:05:30 19° SSE 21:07:48 58° ENE 21:11:12 10° N
Gbstr 26 Del rocket 3.3 21:03:45 10° WNW 21:08:16 84° SSW 21:13:13 13° ESE
Lacrosse 5 3.3 21:04:59 10° WNW 21:09:41 36° N 21:14:22 10° ENE
Cosmos 2082 Rocket 2.3 21:07:37 10° NNW 21:13:14 73° WSW 21:17:46 16° SSE
USA 305 3.0 21:12:58 10° WNW 21:16:30 41° SW 21:18:10 23° SSE
Cosmos 2369 Rocket 3.7 21:15:09 15° ESE 21:17:01 18° E 21:20:42 10° ENE
ATLAS 3B R/B 2.9 21:10:09 10° SSW 21:17:15 69° SE 21:24:53 10° NE
USA 229 DEB 4.2 21:13:01 12° S 21:17:53 31° ESE 21:23:34 10° NE
USA 229 4.2 21:13:13 12° S 21:17:59 31° ESE 21:23:39 10° NE
Cosmos 1943 Rocket 2.1 21:13:25 10° SSW 21:19:03 82° ESE 21:24:42 10° NNE
Spot 2 Rocket 3.9 21:14:27 11° S 21:19:18 60° WSW 21:24:22 10° NNW
NOSS 8 (H) 4.4 21:16:43 10° NW 21:19:47 72° SW 21:21:58 23° SSE
Cosmos 2278 Rocket 2.6 21:14:46 10° SW 21:20:24 68° WNW 21:26:05 10° NNE
Terra 2.7 21:20:46 10° S 21:25:16 44° W 21:29:48 10° NNW
Cosmos 1782 4.4 21:22:24 10° NNE 21:25:18 20° ENE 21:27:00 16° ESE
Lacrosse 4 Rocket 3.2 21:28:41 14° E 21:28:41 14° E 21:30:34 10° ENE
SPOT 3 Rocket 4.1 21:28:25 13° S 21:32:57 56° W 21:38:06 10° NNW
USA 215 3.6 21:28:46 19° SSE 21:33:32 55° SW 21:39:59 10° WNW
Cosmos 2251 Rocket 3.9 21:29:54 10° NNW 21:35:10 56° ENE 21:38:33 22° SE
USA 290 4.1 21:32:26 10° SW 21:35:18 31° WNW 21:38:11 10° N
Cosmos 1461 4.3 21:34:32 10° NNW 21:37:51 27° NE 21:40:41 13° E
H-2A R/B 4.4 21:38:19 12° E 21:40:14 16° ENE 21:42:37 10° NNE
Cosmos 1238 Rocket 3.6 21:37:36 10° N 21:41:19 41° ENE 21:43:23 25° SE
ARIANE 5 R/B 3.5 21:39:29 21° ESE 21:41:54 39° ENE 21:46:05 10° N
Cosmos 1812 2.5 21:38:51 10° NNW 21:42:24 77° W 21:44:10 27° S
Cosmos 1892 Rocket 3.5 21:39:29 20° S 21:42:30 74° E 21:46:55 10° NNE
Cosmos 192 4.3 21:38:40 11° SSW 21:43:29 79° ESE 21:48:29 10° NNE
SL-8 R/B 3.8 21:39:06 10° SW 21:43:43 50° SSE 21:48:21 10° E
Iridium 82 4.4 21:45:12 26° S 21:47:06 85° W 21:50:34 10° N
Ariane Rocket 4.1 21:43:06 12° SSW 21:47:28 39° W 21:52:13 10° NNW
Lacrosse 5 rocket 1.5 21:46:16 27° S 21:47:39 38° SE 21:51:16 10° ENE
Landsat 5 3.5 21:48:00 10° NNE 21:52:24 88° E 21:55:18 20° SSW
Cosmos 1190 Rocket 4.5 21:47:21 10° NNW 21:52:26 50° ENE 21:55:26 23° SE
BREEZE-M DEB (TANK) 3.2 21:50:06 10° W 21:52:41 71° SSW 21:58:36 10° ESE
ISS -1.9 21:50:29 10° W 21:52:49 18° SW 21:53:03 18° SW
Cosmos 1726 Rocket 4.1 21:49:48 10° NNW 21:54:01 53° W 21:56:43 21° SSW
ALOS 2 4.4 21:51:52 14° E 21:54:13 21° ENE 21:57:32 10° NNE
Cosmos 1378 4.1 21:52:32 10° NNE 21:55:19 26° ENE 21:55:59 24° E
SL-27 R/B 4.2 21:54:48 10° NNE 21:56:34 15° NE 21:57:18 14° ENE
Cosmos 2058 2.8 21:55:22 28° S 21:57:27 76° E 22:01:33 10° NNE
Geosat 3.9 21:57:01 10° NE 22:02:02 67° ESE 22:05:42 18° SSW
Cosmos 1656 Rocket 3.8 22:01:48 24° S 22:04:59 54° ESE 22:10:25 10° NE
COSMOS 2406 4.2 22:01:45 10° NW 22:06:57 37° WSW 22:10:26 19° SSW
CENTAUR R/B 3.6 21:59:54 10° NW 22:07:44 60° NE 22:16:06 12° ESE
USA 307 3.8 22:07:51 10° W 22:11:03 25° SW 22:11:24 25° SW
Cosmos 1666 4.2 22:14:56 19° E 22:14:56 19° E 22:17:21 10° NE
Alouette 2 Rocket 4.2 22:12:52 24° SSW 22:15:51 89° E 22:23:00 10° NNE
MetOp-A 4.4 22:14:52 23° SSW 22:17:04 41° W 22:20:56 10° NNW
Cosmos 2285 Rocket 4.1 22:11:07 10° NNW 22:17:34 74° ENE 22:21:12 28° SE
Cosmos 407 Rocket 3.8 22:16:03 10° NNW 22:21:09 58° WSW 22:23:41 29° S
Cosmos 1500 4.0 22:24:14 29° E 22:24:16 29° E 22:27:15 10° NNE
COSMOS 2455 3.1 22:19:20 10° NNW 22:25:23 66° NE 22:29:02 25° SE
Cosmos 1605 Rocket 4.1 22:22:38 29° SSE 22:25:44 60° E 22:31:50 10° NNE
CZ-4C R/B 3.4 22:23:17 10° NW 22:30:13 51° WSW 22:34:57 26° S
Cosmos 1371 Rocket 4.2 22:33:41 34° SSE 22:35:44 55° ESE 22:40:57 10° NNE
Cosmos-2242 2.9 22:31:43 10° NNW 22:35:56 80° W 22:37:13 43° S
ATLAS 5 CENTAUR R/B 4.5 22:33:56 10° NNW 22:36:36 16° NNE 22:39:34 10° NE
Cosmos 1271 Rocket 2.6 22:36:00 44° SSW 22:37:07 79° WNW 22:40:56 10° N
PSLV R/B 3.8 22:33:11 10° NNE 22:37:11 68° ESE 22:38:11 47° SSE
USA 281 4.3 22:31:51 12° ESE 22:37:15 38° NE 22:43:12 10° NNW
Exosat Rocket 3.5 22:34:39 10° NNW 22:40:00 80° ENE 22:42:07 35° SE
Cosmos 1833 4.3 22:35:36 10° NNW 22:41:21 75° ENE 22:44:09 31° SE
Cosmos 2058 Rocket 4.3 22:38:02 10° NNW 22:41:56 33° W 22:43:56 22° SW
CZ-2C R/B 3.9 22:37:47 10° N 22:42:28 74° WNW 22:44:50 29° SSW
Cosmos 2297 3.7 22:38:58 21° SSW 22:42:58 87° WNW 22:48:43 10° NNE
Cosmos 44 Rocket 4.1 22:46:38 32° SE 22:47:06 33° ESE 22:51:34 10° NE
Cosmos 1447 Rocket 4.5 22:41:51 10° N 22:48:07 77° E 22:51:03 33° SSE
SJ 16-02 3.5 22:48:42 10° N 22:51:56 20° NE 22:54:45 12° E
Cosmos 1812 Rocket 3.5 22:48:02 10° N 22:52:32 88° W 22:53:51 46° S
Lacrosse 5 2.2 22:48:18 10° NW 22:53:21 63° NNE 22:57:14 17° ESE
Gbstr 26 Del rocket 4.4 22:50:18 10° W 22:54:42 31° SW 22:55:26 30° SSW
Meteor 2-14 Rocket 4.5 22:48:37 10° N 22:54:45 73° ENE 22:57:35 34° SSE
Cosmos 1602 Rocket 3.4 22:54:51 47° S 22:56:03 84° E 23:00:23 10° N
Cosmos 2082 Rocket 4.4 22:54:06 10° WNW 22:56:17 12° W 22:58:28 10° WSW
Cosmos 1954 Rocket 4.1 22:54:29 10° NNW 22:59:37 66° WSW 23:01:25 39° S
Meteor 2-3 Rocket 3.7 22:56:57 31° SSW 22:59:49 80° WNW 23:05:30 10° N
Gblst 52 Del rocket 4.0 22:54:21 10° WSW 23:00:02 84° SSE 23:05:33 10° ENE
Cosmos 2369 Rocket 2.2 22:56:53 25° SSW 23:00:18 83° WNW 23:05:59 10° NNE
Cosmos 1782 3.7 22:57:34 10° NNW 23:01:04 36° W 23:01:56 31° WSW
Cosmos 1943 Rocket 4.4 22:58:57 10° W 23:03:28 24° NW 23:07:59 10° NNE
NOSS 3-2 (A) 4.2 22:56:30 10° NW 23:03:41 73° NE 23:10:30 17° SE
Lacrosse 4 Rocket 1.4 23:04:32 36° SW 23:06:04 74° NW 23:10:14 10° NNE
USA 81 4.3 23:01:03 10° NNW 23:06:16 63° W 23:08:23 35° SSW
Cosmos 1624 Rocket 4.0 23:05:33 33° SSW 23:07:57 86° WNW 23:13:14 10° NNE
Spot 2 4.0 23:06:51 48° SE 23:07:57 75° ENE 23:12:06 10° NNW
USA 229 DEB 3.9 23:02:05 10° SW 23:08:16 68° NW 23:15:10 10° NE
USA 229 3.8 23:02:11 10° SW 23:08:21 68° NW 23:15:16 10° NE
ATLAS 3B R/B 4.0 23:01:30 10° WSW 23:08:31 45° NNW 23:15:57 10° NE
Cosmos 1420 Rocket 4.2 23:05:35 26° SW 23:08:33 70° WNW 23:13:50 10° NNE
Cosmos 1862 3.3 23:10:25 52° SW 23:11:12 69° WNW 23:15:04 10° N
SeaSat 1 2.6 23:11:06 34° SE 23:13:12 71° ENE 23:18:07 10° NNW
Meteor 2-6 Rocket 4.5 23:07:31 10° N 23:13:30 67° ENE 23:16:08 34° SSE
H-2A R/B 2.5 23:14:16 48° SW 23:14:47 53° WSW 23:18:29 10° NNW
Cosmos 1850 Rocket 4.3 23:10:06 10° NNW 23:15:18 60° ENE 23:17:37 32° SE
Cosmos 1758 Rocket 4.0 23:14:35 35° SW 23:16:05 53° WNW 23:20:19 10° N
Cosmos 1461 3.1 23:12:25 10° NW 23:16:06 45° WSW 23:16:06 45° WSW
Cosmos 2151 3.6 23:15:32 39° ESE 23:16:10 42° E 23:20:12 10° NNE
Cosmos 1933 4.3 23:12:42 10° NNW 23:16:19 35° W 23:17:07 32° WSW
Cosmos 1809 Rocket 4.5 23:10:41 10° NNW 23:16:51 75° W 23:19:35 35° S
GRACE-FO 1 4.4 23:16:34 73° SSW 23:16:53 86° W 23:20:32 10° N
GRACE-FO 2 4.4 23:16:58 72° SSW 23:17:18 85° W 23:20:56 10° N
PSLV R/B 3.9 23:13:32 10° NNE 23:17:53 53° E 23:18:48 44° SE
Cosmos 2221 2.4 23:13:36 10° N 23:17:53 80° E 23:18:49 54° SSE
ARIANE 5 R/B 4.1 23:16:57 23° SW 23:18:23 27° W 23:22:14 10° NW
Cosmos 2297 Rocket 3.9 23:15:32 10° NNW 23:20:25 29° NE 23:25:17 10° ESE
Cosmos 1452 Rocket 4.1 23:21:54 36° SE 23:23:08 42° ESE 23:28:04 10° NE
NOSS 2-1 (C) 4.3 23:24:31 26° ENE 23:24:31 26° ENE 23:26:10 10° ENE
Cosmos 2056 Rocket 3.8 23:21:02 28° SW 23:23:47 65° WNW 23:28:57 10° NNE
Cosmos 2344 4.5 23:22:54 24° SE 23:24:56 27° ESE 23:30:51 10° ENE
Lacrosse 5 rocket 2.1 23:22:11 10° W 23:25:52 48° NNW 23:29:44 10° NE
SL-8 R/B 3.5 23:21:09 10° W 23:25:57 78° S 23:30:46 10° E
SL-27 R/B 3.8 23:26:48 10° NW 23:28:24 23° WNW 23:28:24 23° WNW
ATLAS CENTAUR R/B 4.0 23:28:31 24° SE 23:29:21 25° ESE 23:35:24 10° ENE
ALOS 2 3.0 23:29:16 43° SW 23:30:14 52° W 23:34:32 10° NNW
Cosmos 2263 4.5 23:29:23 24° SW 23:32:53 66° WNW 23:38:38 10° NNE
Cosmos 1331 Rocket 4.4 23:31:59 39° SE 23:33:12 47° ESE 23:38:09 10° NNE
Cosmos 1340 Rocket 2.7 23:34:07 10° N 23:38:03 78° ENE 23:38:36 63° SE
NOSS 3-2 (C) 4.3 23:34:19 10° NW 23:41:28 68° NE 23:50:00 10° SE
USA 59 Rocket 0.1 23:42:38 39° ENE 23:42:38 39° ENE 23:44:43 10° NE
Meteor 2-15 Rocket 4.5 23:42:09 38° S 23:44:36 71° E 23:50:43 10° NNE
Cosmos 1666 3.7 23:48:24 28° W 23:48:53 30° WNW 23:51:56 10° N
Cosmos 1842 Rocket 3.6 23:46:11 10° N 23:50:40 72° E 23:51:48 48° SSE
Cosmos 1459 Rocket 4.0 23:50:37 37° S 23:53:23 89° W 23:59:43 10° N
Cosmos 1076 Rocket 3.6 23:52:47 53° SSE 23:53:38 67° E 23:57:58 10° NNE
Cosmos 1626 4.4 23:52:46 10° NE 23:54:11 12° ENE 23:55:17 11° E
